Regional Weather Roundup
Issued by NWS

Home | Current Version | Previous Version | Text Only | Print | Product List | Glossary Off
Versions: 1 2 3 4 5 6 7 8 9 10 11 12 13 14 15 16 17 18 19 20 21 22 23 24 25 26 27 28 29 30 31 32 33 34 35 36 37 38 39 40 41 42 43 44 45 46 47 48 49 50

000
ASUS43 KLOT 111108
RWRIL

ILLINOIS REGIONAL WEATHER ROUNDUP
NATIONAL WEATHER SERVICE CHICAGO/ROMEOVILLE IL
500 AM CST MON DEC 11 2017

NOTE: "FAIR" INDICATES FEW OR NO CLOUDS BELOW 12,000 FEET WITH NO
SIGNIFICANT WEATHER AND/OR OBSTRUCTIONS TO VISIBILITY.

* THESE STATIONS ARE NOT UNDER NWS QUALITY CONTROL. THEY ALSO MAY NOT
  REPORT WEATHER SUCH AS PRECIPITATION OR FOG.

ILZ001-002-007-009-015-016-024-111200-
NORTHWEST ILLINOIS

CITY           SKY/WX    TMP DP  RH WIND       PRES   REMARKS
MOLINE         PTCLDY    30  24  78 S5        29.94F WCI  25
STERLING*      PTCLDY    27  22  81 VRB3      29.97F
SAVANNA*       CLOUDY    28  23  83 S5        29.94F WCI  22
$$

ILZ003-004-008-010-011-017-018-111200-
NORTH CENTRAL ILLINOIS

CITY           SKY/WX    TMP DP  RH WIND       PRES   REMARKS
ROCKFORD       CLOUDY    24  20  84 SE6       29.98F WCI  17
FREEPORT*      CLOUDY    25  21  85 S7        29.96F WCI  17
ROCHELLE*      CLOUDY    25  21  84 SE5       29.98F WCI  20
DE KALB*       CLOUDY    24  22  91 S5        29.98F WCI  18
PERU*          CLOUDY    26  21  81 CALM      30.01R
$$

ILZ005-006-012>014-019>023-111200-
NORTHEAST ILLINOIS

CITY           SKY/WX    TMP DP  RH WIND       PRES   REMARKS
CHICAGO-OHARE  FLURRIES  27  20  75 S5        30.00R WCI  22
CHICAGO-MIDWAY FLURRIES  27  20  75 S6        30.03R WCI  20
AURORA         CLOUDY    25  21  85 CALM      30.01S
LANSING*       CLOUDY    25  22  87 SW3       30.04R
WAUKEGAN       CLOUDY    24  20  84 SW5       29.99S WCI  18
DUPAGE AIRPORT CLOUDY    24  22  91 S7        29.99R WCI  16
KANKAKEE*      CLOUDY    24  20  85 SW3       30.04R
WHEELING       CLOUDY    27  21  78 S3        30.02R
MORRIS*        CLOUDY    25  22  87 CALM      30.02S
ROMEOVILLE*    CLOUDY    26  23  89 CALM      30.01S
NORTHERLY ISL    N/A     28  19  69 S8          N/A  WCI  20
$$

LMZ740>746-111200-
SOUTHERN LAKE MICHIGAN

STATION/POSITION SKY/WX   TEMP    WIND        PRES    VSBY  WAVE
                          AIR SEA DIR/SP/G                  HT/PER
                          (F)     (DEG/KT/KT) (MB)    (MI)  (FT/S)
HARRISON CRIB              29     200/ 11/ 13   N/A
BURNHAM HARBOR             28     180/  7/  9   N/A
CALUMET HARBOR             27     210/  4/  6 1016.5R
BURNS HARBOR               28     210/  5/  9 1016.9R
MICHIGAN CITY              27     190/ 10/ 12   N/A
$$

ILZ025>027-034>036-040-047-049-050-058-095>099-111200-
WEST-CENTRAL ILLINOIS

CITY           SKY/WX    TMP DP  RH WIND       PRES   REMARKS
QUINCY         CLOUDY    32  25  75 S8        29.98F WCI  25
GALESBURG*     CLOUDY    29  26  88 S7        29.97F WCI  22
MACOMB*        PTCLDY    26  23  87 S6        30.01S WCI  20
JACKSONVILLE*  CLOUDY    31  23  72 S8        30.02R WCI  24
PITTSFIELD*    CLEAR     33  26  76 S6        30.01F WCI  27
$$

ILZ028>032-037-038-041>044-048-051>054-059>061-111200-
CENTRAL ILLINOIS

CITY           SKY/WX    TMP DP  RH WIND       PRES   REMARKS
PONTIAC        CLOUDY    27  25  93 SE8       30.00F WCI  18
BLOOMINGTON    CLOUDY    27  24  89 S9        30.00F WCI  18
DECATUR        CLOUDY    29  23  78 S7        30.03F WCI  22
PEORIA         CLOUDY    29  24  82 S7        30.00F WCI  22
LACON*         CLOUDY    27  24  87 CALM      29.99S
LINCOLN*       CLOUDY    29  26  87 S5        30.02S WCI  24
SPRINGFIELD    CLOUDY    32  25  75 S10       30.02F WCI  24
TAYLORVILLE    CLOUDY    30  24  77 S9        30.04S WCI  22
$$

ILZ033-039-045-046-055>057-062-063-111200-
EAST-CENTRAL ILLINOIS

CITY           SKY/WX    TMP DP  RH WIND       PRES   REMARKS
CHAMPAIGN      CLOUDY    28  23  81 S8        30.03F WCI  20
DANVILLE*      CLOUDY    25  21  87 S3        30.03S
RANTOUL*       CLOUDY    28  25  86 S7        30.02F WCI  21
MATTOON        CLOUDY    29  24  82 S7        30.04F WCI  22
PARIS*         CLOUDY    27  24  89 S6        30.07F WCI  21
$$

ILZ079-100>102-111200-
SOUTHWEST ILLINOIS

CITY           SKY/WX    TMP DP  RH WIND       PRES   REMARKS
ALTON          CLOUDY    26  24  91 CALM      30.06F
BELLEVILLE     CLOUDY    26  20  80 CALM      30.06F
CAHOKIA*       CLOUDY    25  21  85 CALM      30.06F
$$

ILZ064>066-069>071-074>076-080>082-084>086-088>090-092>094-111200-
SOUTH-CENTRAL ILLINOIS

CITY           SKY/WX    TMP DP  RH WIND       PRES   REMARKS
CARBONDALE     CLEAR     24  23  96 SE3       30.10F
CAIRO*         CLEAR     26  25  98 CALM      30.11F
EFFINGHAM*     CLOUDY    28  27  96 SE5       30.08F WCI  23
MARION         CLEAR     30  29  98 CALM      30.10F
MT. VERNON     CLEAR     20  18  92 CALM      30.10F
CENTRALIA*     CLEAR     29  25  86 CALM      30.08S
SALEM*         PTCLDY    31  24  77 S3        30.08F
METROPOLIS*    CLEAR     25  24  94 CALM      30.12F
$$

ILZ067-068-072-073-078-083-087-091-111200-
SOUTHEAST ILLINOIS

CITY           SKY/WX    TMP DP  RH WIND       PRES   REMARKS
LAWRENCEVILLE  CLEAR     25  22  88 CALM      30.11R
FLORA*         CLEAR     26  24  89 S5        30.10F WCI  21
FAIRFIELD*     CLEAR     25  23  92 CALM      30.10S
HARRISBURG*    CLEAR     24  23  94 CALM      30.11F
ROBINSON*      CLOUDY    23  22  95 CALM      30.11S
CARMI*         CLEAR     24  23  96 CALM      30.11S
$$

ABBREVIATIONS USED IN REMARKS
   TC - TEMPERATURE IN CELSIUS
  WCI - WIND CHILL INDEX
   HX - HEAT INDEX
  VSB - VISIBILITY
$$




USA.gov is the U.S. government's official web portal to all federal, state and local government web resources and services.